Theta_e
313 313 315 315 315 315 314 314 314 317 320 321 322 324 324 326 325 326 328 328 329 329 329 329 331 331 332 332 331 330 329 325 324 323 326 336 340 344 345 344 345 346 346 345
314 314 313 314 314 313 314 314 315 315 316 320 322 322 323 326 326 325 326 327 328 329 329 330 330 329 330 330 329 329 331 327 325 328 327 336 340 344 346 345 347 347 345 345
313 313 313 313 313 313 313 314 314 314 315 317 320 322 323 324 325 325 325 326 326 327 328 328 329 329 329 328 328 329 331 325 322 322 334 337 344 346 347 347 348 346 346 345
313 313 313 311 312 313 313 313 312 313 314 317 319 322 323 323 324 325 325 325 326 327 327 327 327 327 327 327 328 329 328 328 325 320 331 339 344 346 346 346 347 347 346 347
313 313 314 315 312 312 312 312 312 312 313 315 316 319 321 323 324 325 326 325 325 326 326 326 326 326 326 325 325 326 327 327 325 331 324 336 343 344 346 346 347 346 346 347
312 313 314 314 314 312 312 311 312 312 313 316 316 318 320 322 324 324 325 325 325 325 325 325 324 324 324 324 325 325 326 327 333 325 321 326 340 345 346 347 348 347 345 345
312 313 314 313 314 314 312 312 312 313 315 314 315 319 319 321 322 323 323 323 323 323 322 322 323 323 324 325 326 325 326 327 336 333 324 332 342 348 346 348 348 347 345 345
313 314 313 313 313 314 313 313 312 315 315 315 316 317 319 320 321 322 322 322 323 322 323 324 325 326 328 328 326 326 328 336 345 345 343 345 350 348 349 348 348 346 345 343
312 313 312 312 314 313 314 314 313 313 313 316 317 317 319 321 321 322 322 321 322 323 326 328 331 333 333 329 326 327 336 342 346 347 348 350 349 349 348 346 344 343 340 341
311 311 311 313 314 312 313 314 316 314 314 312 316 317 318 320 320 321 322 322 322 323 324 326 333 338 337 331 329 334 339 344 346 348 349 349 348 347 346 345 342 340 339 339
310 310 311 312 314 315 314 315 314 314 315 314 316 318 319 320 320 322 323 322 322 322 323 328 338 338 338 335 337 339 343 346 347 348 348 348 346 346 345 342 342 340 339 337
311 313 311 311 311 312 312 314 315 319 318 315 315 316 317 321 322 321 322 321 321 322 322 325 337 338 339 340 343 345 346 346 346 347 347 345 344 342 342 341 339 338 337 336
311 313 315 311 312 313 314 314 314 314 316 317 319 319 319 323 323 322 322 321 320 319 321 323 335 338 342 342 344 345 346 346 345 344 343 342 341 341 339 338 337 336 336 335
310 312 312 315 313 312 313 313 312 314 316 315 316 315 316 317 321 320 319 319 320 317 320 322 329 340 343 342 343 344 344 344 343 342 341 341 340 338 336 336 336 336 336 336
312 314 312 312 312 312 311 310 311 311 312 312 314 313 315 316 315 319 317 316 317 317 320 322 325 340 342 343 342 342 342 342 341 340 339 337 336 335 336 336 336 335 335 334
311 314 313 313 312 311 311 311 311 311 311 312 312 312 313 314 314 315 315 315 316 317 319 321 323 340 341 341 342 342 341 340 340 338 335 335 335 335 336 336 335 334 334 333
311 312 314 313 312 313 312 312 315 315 313 313 313 313 314 314 315 315 315 316 316 316 320 321 325 334 340 341 341 340 340 339 337 335 334 333 334 334 335 335 335 333 333 332
312 313 314 313 314 315 312 314 312 314 314 315 317 317 316 316 315 315 316 315 316 318 320 325 329 333 341 340 340 340 339 337 334 333 332 333 333 333 333 333 334 333 335 334
312 311 314 316 316 314 313 313 312 313 314 313 315 316 318 317 318 318 317 315 316 320 325 326 330 334 340 340 339 340 338 335 332 332 332 332 332 333 333 333 333 336 332 331
314 309 313 314 316 317 315 313 312 309 313 312 311 313 315 315 322 321 322 322 323 323 324 327 331 334 341 340 340 339 336 333 332 331 331 331 332 332 332 333 335 333 332 332
316 312 313 315 316 316 313 313 310 315 318 312 312 312 313 317 318 317 318 320 320 322 325 328 332 334 342 339 339 338 335 331 331 331 331 330 331 332 333 334 335 333 333 334
316 316 315 315 317 318 312 313 314 312 312 311 313 312 314 314 314 316 317 318 321 324 327 331 333 337 341 338 340 337 333 331 331 331 330 330 332 331 330 332 334 334 333 331
315 314 316 317 316 314 312 312 313 312 312 311 311 312 313 313 314 316 316 319 323 325 329 333 335 340 339 338 340 336 332 330 331 331 330 330 331 333 332 333 333 334 332 331
314 313 315 315 314 313 310 311 311 312 311 310 309 311 312 312 313 316 317 320 324 326 329 331 336 340 338 339 338 335 331 330 331 330 331 331 332 332 333 333 331 333 333 331
314 314 315 315 313 312 310 310 310 311 310 309 310 312 312 313 315 315 318 322 324 328 331 333 337 340 339 340 337 334 329 330 331 330 331 331 333 334 333 333 331 332 332 331
315 315 316 316 313 311 311 310 311 311 310 310 311 313 312 313 314 316 321 322 323 325 331 335 338 338 339 338 336 332 329 331 332 331 330 331 333 334 334 333 330 331 330 329
Wind_Speed
11 14 15 18 19 23 23 27 34 31 25 29 30 32 36 30 34 33 33 32 36 35 31 33 24 22 22 22 25 30 27 25 27 28 26 19 19 20 19 19 21 21 21 20
14 15 17 17 21 25 24 26 30 29 31 27 25 31 34 28 29 36 38 36 30 27 29 27 27 27 25 27 28 28 28 23 22 23 27 21 19 18 17 18 20 21 19 19
14 16 19 19 19 19 22 24 25 29 26 28 31 27 33 32 30 34 39 44 44 42 41 35 32 28 27 27 28 27 24 21 18 19 20 21 15 16 18 19 19 19 18 19
16 15 11 15 22 21 23 22 25 24 23 22 28 23 28 27 28 29 33 38 42 39 31 31 34 34 31 30 27 27 25 25 24 24 19 20 16 17 18 19 16 17 18 18
18 19 19 20 20 19 22 20 24 26 24 27 30 22 23 23 28 26 26 34 33 33 39 42 36 34 31 31 30 28 30 30 29 26 20 20 19 16 15 17 20 16 18 18
21 22 20 19 18 19 18 21 26 24 21 22 30 27 25 22 20 23 19 24 25 25 28 29 33 37 35 27 27 28 28 29 27 25 24 24 19 18 18 21 18 17 19 21
22 17 13 10 18 17 17 20 15 17 17 22 26 26 22 21 28 23 19 27 29 23 19 24 27 27 26 23 23 23 25 26 23 23 22 22 21 19 22 23 18 19 17 17
10 16 12 13 13 17 18 18 14 18 17 18 24 25 23 29 31 10 9 14 10 8 15 14 17 20 19 19 19 20 19 21 20 20 19 18 21 20 20 19 18 17 16 15
13 12 21 21 12 12 15 19 22 23 21 14 13 25 27 23 32 24 22 10 9 5 10 11 12 14 16 15 16 21 19 20 19 19 19 20 21 21 19 21 21 17 16 15
15 19 17 10 20 15 15 18 10 8 18 19 16 21 19 23 13 16 13 8 5 6 9 8 7 9 10 12 15 19 19 20 20 20 21 21 22 20 21 19 19 18 16 14
16 18 21 16 13 16 9 15 17 12 14 13 10 12 19 26 25 19 17 11 4 4 7 7 6 7 6 12 15 19 21 21 22 22 23 23 21 20 19 19 17 16 15 14
19 13 18 22 23 11 7 13 6 5 12 14 16 16 22 21 6 27 13 9 3 7 10 11 8 3 8 14 17 20 21 23 23 23 22 22 21 21 20 17 16 15 14 13
8 7 11 17 6 20 8 18 8 12 17 18 11 10 15 14 19 15 10 5 3 10 12 12 9 2 7 15 18 21 22 23 24 23 23 22 21 19 18 16 15 14 13 12
9 15 16 17 24 10 9 16 14 14 10 14 20 20 11 28 18 12 3 5 8 14 10 11 12 4 5 16 19 21 23 23 23 23 22 22 20 18 17 15 14 13 13 12
5 11 18 20 22 25 21 16 16 19 19 18 22 18 14 15 25 24 11 12 16 16 9 11 11 4 9 10 21 22 22 23 23 23 21 20 19 17 16 15 14 14 14 13
5 10 14 17 20 20 22 20 19 19 22 24 25 24 18 15 24 24 17 19 17 12 11 12 10 4 13 7 19 23 23 23 22 21 20 19 18 17 16 14 15 15 13 11
4 8 11 15 14 13 13 11 16 18 17 15 24 21 20 20 16 15 16 16 16 14 11 11 9 3 16 15 16 23 24 23 22 20 19 18 18 16 15 14 13 16 15 14
5 5 4 8 9 10 4 8 11 16 18 16 19 23 21 19 26 24 22 21 17 11 12 10 9 11 19 20 22 21 23 22 21 20 18 17 17 16 14 14 13 15 16 15
12 2 4 4 5 14 6 2 1 3 11 17 13 19 21 32 31 25 14 17 17 10 9 10 10 10 16 25 26 23 23 22 21 19 18 17 17 15 14 13 13 13 15 15
9 4 3 4 5 4 0 5 3 3 5 4 11 12 16 19 11 9 19 15 8 11 13 12 12 14 24 27 28 25 24 23 21 19 17 17 16 14 13 14 12 13 14 15
3 3 5 8 6 3 3 9 3 3 5 19 18 15 16 14 17 27 22 19 15 16 15 13 13 11 21 30 27 25 24 23 21 19 17 16 16 14 12 11 10 12 12 14
4 4 3 3 4 3 9 4 1 8 13 22 22 20 20 21 25 25 23 22 19 16 14 11 11 10 23 33 26 26 25 23 22 20 17 18 15 13 11 10 9 11 13 15
4 6 4 4 5 15 17 13 14 15 19 20 26 23 22 21 22 19 21 21 20 15 16 12 9 16 24 34 25 27 25 24 23 21 19 18 16 14 12 11 10 9 12 14
7 11 6 9 8 15 21 13 18 16 18 27 24 25 20 25 20 22 21 20 17 15 16 16 12 22 29 32 26 26 25 25 24 22 21 19 17 15 11 10 7 11 8 11
13 13 10 14 9 21 19 24 27 22 23 28 28 29 21 20 19 20 21 20 17 16 16 14 18 24 34 27 27 25 26 26 25 23 21 19 17 15 12 11 10 9 9 8
9 9 5 7 18 17 21 25 24 26 28 28 24 19 14 16 22 21 22 19 20 19 16 12 19 28 31 29 28 25 26 26 25 23 22 19 17 16 13 9 9 8 5 9
Wind_Direction
286 269 257 266 266 262 271 271 273 272 265 244 256 241 244 238 237 254 256 241 231 241 245 240 236 238 234 237 240 244 256 262 262 258 258 246 242 231 226 221 214 209 214 210
273 255 265 272 274 278 276 275 271 271 266 274 271 254 254 245 234 234 247 251 242 243 244 241 236 240 243 245 248 255 258 255 257 255 249 237 239 227 224 211 211 206 207 204
291 298 300 284 273 264 267 269 274 278 280 259 260 257 260 258 249 233 239 244 247 248 246 245 247 243 243 247 249 247 248 246 247 254 240 242 225 207 207 203 205 202 198 199
289 288 268 275 269 258 265 269 277 272 270 259 248 256 251 245 250 244 238 241 245 242 247 249 251 252 251 248 245 244 242 246 249 247 225 228 213 209 210 201 198 192 194 193
288 291 285 281 263 262 272 277 275 263 261 259 256 256 248 235 244 238 239 246 247 249 245 244 245 248 248 250 246 240 235 237 239 234 230 230 208 211 203 195 196 183 186 185
284 308 267 276 275 275 287 280 277 255 253 243 244 243 244 242 245 231 233 231 234 243 247 251 253 250 245 243 243 235 230 227 224 226 231 225 209 200 194 185 174 176 185 180
318 302 299 338 289 263 254 269 271 257 246 245 239 245 242 252 254 268 279 244 236 236 245 251 245 241 239 234 235 226 221 222 214 215 222 212 190 192 186 184 170 173 180 178
303 313 339 354 303 280 277 260 265 261 263 252 242 244 245 235 252 223 260 261 167 206 242 242 246 244 242 233 224 211 212 203 196 197 197 187 183 182 182 168 177 175 180 184
308 309 312 292 272 270 282 261 251 266 259 276 285 286 231 240 219 240 227 228 208 206 256 252 262 255 246 225 211 198 195 189 187 181 174 172 171 174 173 174 171 172 172 178
293 297 301 326 332 261 240 260 289 259 270 261 269 257 256 215 220 214 196 185 163 241 255 272 280 270 252 212 194 187 186 183 173 168 166 166 166 163 165 166 158 164 167 174
300 283 289 282 222 261 242 244 245 259 249 272 295 282 226 209 196 221 165 140 150 302 313 307 339 295 224 184 180 178 176 169 164 162 161 163 160 162 160 155 161 164 167 172
316 305 280 279 283 252 288 270 272 224 270 278 250 265 309 275 194 195 126 136 45 343 339 332 22 328 186 175 165 165 162 162 161 162 162 158 156 155 154 158 162 165 168 178
343 292 309 283 267 14 360 325 234 250 279 254 290 285 285 102 102 99 106 96 314 337 342 346 33 44 174 164 160 159 161 161 161 161 157 154 152 154 155 159 165 169 173 176
294 267 258 273 293 155 237 240 258 264 270 257 258 269 269 293 131 136 142 1 295 308 320 360 2 43 192 164 160 161 161 161 160 158 156 154 155 157 157 160 163 166 170 170
207 268 273 273 279 283 279 280 277 270 269 273 274 275 263 274 309 311 0 313 293 301 331 349 340 86 194 174 164 163 161 159 158 157 156 156 156 153 153 158 162 169 168 178
275 267 288 287 285 285 287 278 259 257 268 266 274 275 276 267 258 283 303 287 289 300 318 321 325 124 181 178 167 164 162 160 159 158 158 155 154 154 155 161 170 168 167 172
258 278 290 280 298 320 279 306 336 334 271 302 290 290 297 287 267 272 273 285 286 285 293 303 296 324 180 183 174 163 162 160 161 159 158 157 155 157 159 165 167 171 174 174
222 248 244 278 290 261 305 29 313 312 298 296 306 300 297 296 297 285 270 275 283 295 288 304 309 309 179 177 169 164 162 162 162 161 159 159 157 159 163 168 176 175 181 178
200 203 268 269 261 270 285 52 288 273 294 313 318 306 316 338 332 288 264 262 269 283 287 289 286 291 193 173 172 170 165 165 164 162 161 160 161 162 167 172 182 181 184 174
160 179 262 296 290 295 126 21 279 180 240 359 322 309 307 312 279 55 6 356 326 298 290 285 287 293 176 173 173 170 168 167 166 162 158 158 160 162 168 171 172 186 176 171
276 180 228 260 260 213 309 2 120 227 22 319 313 303 301 291 292 310 309 311 299 290 289 282 280 276 175 175 174 172 169 169 165 160 156 157 157 158 163 167 173 168 166 170
265 314 311 285 275 337 314 346 300 305 304 317 306 303 289 278 289 290 298 299 293 292 285 276 280 244 173 175 177 172 171 166 163 161 158 157 156 158 159 161 166 164 170 170
302 331 282 212 270 293 298 306 296 290 316 314 307 304 300 298 286 278 283 283 285 286 285 275 261 187 172 174 177 172 169 165 164 162 159 157 156 151 155 150 165 164 169 170
297 298 271 309 335 331 345 324 317 326 319 313 302 303 289 278 274 275 276 278 276 274 274 284 220 179 176 173 176 173 168 166 166 163 162 160 162 158 155 151 155 173 167 164
284 295 295 297 318 330 324 331 326 325 325 318 312 302 273 270 268 277 280 279 274 277 269 269 197 175 176 176 173 172 170 169 167 166 166 165 163 163 163 171 158 161 157 174
281 273 311 303 313 325 321 320 336 330 317 308 298 302 281 269 279 274 283 279 280 279 269 245 192 175 172 175 169 171 172 171 169 167 168 171 162 170 172 165 176 183 195 189